TimeEST,TemperatureF,Dew PointF,Humidity,Sea Level PressureIn,VisibilityMPH,Wind Direction,Wind SpeedMPH,Gust SpeedMPH,PrecipitationIn,Events,Conditions,WindDirDegrees,DateUTC
12:15 AM,44.6,44.6,100,29.98,3.0,East,3.5,-,0.01,,Overcast,100,2013-01-02 05:15:00
12:35 AM,44.6,44.6,100,29.97,2.5,Calm,Calm,-,0.02,,Overcast,0,2013-01-02 05:35:00
12:55 AM,44.6,44.6,100,29.97,3.0,Calm,Calm,-,0.04,,Overcast,0,2013-01-02 05:55:00
1:15 AM,44.6,44.6,100,29.97,3.0,Calm,Calm,-,0.03,,Overcast,0,2013-01-02 06:15:00
1:35 AM,44.6,44.6,100,29.96,2.5,Calm,Calm,-,0.05,,Overcast,0,2013-01-02 06:35:00
1:55 AM,44.6,44.6,100,29.97,3.0,Calm,Calm,-,0.08,,Overcast,0,2013-01-02 06:55:00
2:15 AM,44.6,44.6,100,29.96,3.0,Calm,Calm,-,0.02,,Overcast,0,2013-01-02 07:15:00
2:35 AM,44.6,44.6,100,29.97,4.0,Calm,Calm,-,0.04,,Overcast,0,2013-01-02 07:35:00
2:55 AM,44.6,44.6,100,29.97,3.0,NE,3.5,-,0.06,,Overcast,40,2013-01-02 07:55:00
3:15 AM,44.6,44.6,100,29.98,3.0,NNE,4.6,-,0.01,,Overcast,20,2013-01-02 08:15:00
3:35 AM,44.6,44.6,100,29.98,7.0,NNE,6.9,-,0.03,,Overcast,30,2013-01-02 08:35:00
3:55 AM,44.6,44.6,100,29.97,5.0,ENE,4.6,-,0.07,,Overcast,60,2013-01-02 08:55:00
4:15 AM,44.6,44.6,100,29.96,7.0,NE,5.8,-,0.02,,Overcast,40,2013-01-02 09:15:00
4:35 AM,44.6,44.6,100,29.98,7.0,NNE,4.6,-,0.04,,Overcast,30,2013-01-02 09:35:00
4:55 AM,44.6,42.8,93,29.96,7.0,NE,3.5,-,0.09,,Overcast,50,2013-01-02 09:55:00
5:15 AM,44.6,42.8,93,29.98,10.0,NE,4.6,-,0.01,,Overcast,50,2013-01-02 10:15:00
5:35 AM,44.6,42.8,93,29.97,10.0,ENE,5.8,-,0.02,,Overcast,60,2013-01-02 10:35:00
5:55 AM,44.6,42.8,93,29.99,10.0,NE,5.8,-,0.02,,Overcast,40,2013-01-02 10:55:00
6:15 AM,44.6,42.8,93,29.98,10.0,ENE,4.6,-,N/A,,Overcast,70,2013-01-02 11:15:00
6:35 AM,44.6,42.8,93,30.00,10.0,NNE,4.6,-,N/A,,Overcast,30,2013-01-02 11:35:00
6:55 AM,42.8,42.8,100,30.00,10.0,NNE,6.9,-,N/A,,Overcast,30,2013-01-02 11:55:00
7:15 AM,42.8,42.8,100,30.04,7.0,North,6.9,-,0.01,,Overcast,10,2013-01-02 12:15:00
7:35 AM,42.8,42.8,100,30.04,4.0,NNE,8.1,-,0.02,,Overcast,20,2013-01-02 12:35:00
7:55 AM,42.8,42.8,100,30.05,5.0,NNE,8.1,-,0.02,,Overcast,20,2013-01-02 12:55:00
8:15 AM,42.8,42.8,100,30.05,5.0,NE,4.6,-,N/A,,Overcast,40,2013-01-02 13:15:00
8:35 AM,42.8,42.8,100,30.05,10.0,NE,6.9,-,N/A,,Overcast,40,2013-01-02 13:35:00
8:55 AM,42.8,41.0,93,30.06,10.0,ENE,6.9,-,N/A,,Overcast,70,2013-01-02 13:55:00
9:15 AM,41.0,41.0,100,30.05,10.0,East,8.1,-,N/A,,Overcast,90,2013-01-02 14:15:00
9:35 AM,41.0,41.0,100,30.06,10.0,East,4.6,-,N/A,,Overcast,90,2013-01-02 14:35:00
9:55 AM,41.0,41.0,100,30.07,10.0,East,5.8,-,N/A,,Overcast,80,2013-01-02 14:55:00
10:15 AM,42.8,41.0,93,30.09,10.0,NNE,8.1,-,N/A,,Overcast,30,2013-01-02 15:15:00
10:35 AM,42.8,41.0,93,30.09,10.0,NNE,8.1,-,N/A,,Overcast,30,2013-01-02 15:35:00
10:55 AM,41.0,39.2,93,30.11,10.0,NNE,10.4,-,N/A,,Overcast,20,2013-01-02 15:55:00
11:15 AM,41.0,39.2,93,30.10,10.0,NE,8.1,-,N/A,,Overcast,40,2013-01-02 16:15:00
11:35 AM,41.0,39.2,93,30.10,10.0,NNE,11.5,-,N/A,,Overcast,20,2013-01-02 16:35:00
11:55 AM,41.0,37.4,87,30.09,10.0,NE,9.2,-,N/A,,Overcast,40,2013-01-02 16:55:00
12:15 PM,39.2,37.4,93,30.10,7.0,NNE,12.7,-,N/A,,Overcast,30,2013-01-02 17:15:00
12:35 PM,39.2,37.4,93,30.09,10.0,ENE,8.1,-,N/A,,Overcast,60,2013-01-02 17:35:00
12:55 PM,39.2,37.4,93,30.09,10.0,NE,8.1,-,N/A,,Overcast,40,2013-01-02 17:55:00
1:15 PM,39.2,37.4,93,30.10,10.0,NNE,6.9,-,N/A,,Overcast,30,2013-01-02 18:15:00
1:35 PM,37.4,37.4,100,30.08,10.0,NE,5.8,-,N/A,,Overcast,50,2013-01-02 18:35:00
1:55 PM,39.2,37.4,93,30.08,7.0,ENE,5.8,-,N/A,,Overcast,70,2013-01-02 18:55:00
2:15 PM,39.2,35.6,87,30.10,10.0,NE,3.5,-,N/A,,Overcast,50,2013-01-02 19:15:00
2:35 PM,39.2,35.6,87,30.09,10.0,ENE,5.8,-,N/A,,Overcast,60,2013-01-02 19:35:00
2:55 PM,39.2,35.6,87,30.11,10.0,NNE,6.9,-,N/A,,Overcast,30,2013-01-02 19:55:00
3:15 PM,39.2,35.6,87,30.11,10.0,NNE,4.6,-,N/A,,Overcast,30,2013-01-02 20:15:00
3:35 PM,39.2,35.6,87,30.12,10.0,NNE,6.9,-,N/A,,Overcast,30,2013-01-02 20:35:00
4:15 PM,39.2,35.6,87,30.13,10.0,NNE,3.5,-,N/A,,Overcast,20,2013-01-02 21:15:00
4:35 PM,39.2,35.6,87,30.15,10.0,NE,3.5,-,N/A,,Overcast,40,2013-01-02 21:35:00
4:55 PM,39.2,35.6,87,30.14,10.0,NE,4.6,-,N/A,,Overcast,50,2013-01-02 21:55:00
5:15 PM,39.2,35.6,87,30.15,10.0,NE,5.8,-,N/A,,Overcast,40,2013-01-02 22:15:00
5:35 PM,39.2,35.6,87,30.16,10.0,ENE,3.5,-,N/A,,Overcast,70,2013-01-02 22:35:00
5:55 PM,39.2,35.6,87,30.16,10.0,NE,6.9,-,N/A,,Overcast,50,2013-01-02 22:55:00
6:15 PM,37.4,35.6,93,30.17,10.0,NE,3.5,-,N/A,,Overcast,50,2013-01-02 23:15:00
6:35 PM,37.4,35.6,93,30.17,10.0,ENE,5.8,-,N/A,,Overcast,60,2013-01-02 23:35:00
6:55 PM,37.4,35.6,93,30.19,10.0,NE,4.6,-,N/A,,Overcast,50,2013-01-02 23:55:00
7:15 PM,37.4,35.6,93,30.17,10.0,Calm,Calm,-,N/A,,Overcast,0,2013-01-03 00:15:00
7:35 PM,37.4,35.6,93,30.18,10.0,NE,3.5,-,N/A,,Overcast,50,2013-01-03 00:35:00
7:55 PM,37.4,35.6,93,30.17,10.0,NNE,4.6,-,N/A,,Overcast,30,2013-01-03 00:55:00
8:15 PM,37.4,35.6,93,30.19,10.0,North,3.5,-,N/A,,Mostly Cloudy,10,2013-01-03 01:15:00
8:55 PM,37.4,35.6,93,30.19,10.0,ENE,3.5,-,N/A,,Mostly Cloudy,70,2013-01-03 01:55:00
9:15 PM,37.4,33.8,87,30.20,10.0,ENE,3.5,-,N/A,,Scattered Clouds,60,2013-01-03 02:15:00
9:35 PM,37.4,35.6,93,30.20,10.0,ENE,3.5,-,N/A,,Clear,70,2013-01-03 02:35:00
9:55 PM,37.4,33.8,87,30.20,10.0,ENE,3.5,-,N/A,,Clear,70,2013-01-03 02:55:00
10:15 PM,37.4,33.8,87,30.21,10.0,Calm,Calm,-,N/A,,Clear,0,2013-01-03 03:15:00
10:35 PM,37.4,33.8,87,30.20,10.0,ENE,4.6,-,N/A,,Clear,70,2013-01-03 03:35:00
10:55 PM,37.4,35.6,93,30.20,10.0,ESE,3.5,-,N/A,,Clear,110,2013-01-03 03:55:00
11:15 PM,37.4,35.6,93,30.20,10.0,Calm,Calm,-,N/A,,Clear,0,2013-01-03 04:15:00
11:35 PM,37.4,33.8,87,30.21,10.0,Calm,Calm,-,N/A,,Clear,0,2013-01-03 04:35:00
11:55 PM,37.4,35.6,93,30.21,7.0,Calm,Calm,-,N/A,,Clear,0,2013-01-03 04:55:00